User: anonymous   Login
Location: La Pernelle
(49.6188°N, 1.2999°W)
Time: 17:10:25
(UTC+00:00)
Language:

Cosmos 1954 Rocket - Orbit

View from above orbital plane
View from above orbital plane
View from above satellite
View from above satellite

Ground track
Ground track

The orbit data is extracted from the following two-line orbital elements,

1 19257U 88053B   21258.73922641 -.00000056  00000-0 -10005-4 0  9993
2 19257  74.0455 243.7921 0019195 111.3663  61.2896 14.37530399741429
Epoch (UTC): 15 September 2021 17:44:29
Eccentricity: 0.0019195
inclination: 74.0455°
perigee height: 753 km
apogee height: 780 km
right ascension of ascending node: 243.7921°
argument of perigee: 111.3663°
revolutions per day: 14.37530399
mean anomaly at epoch: 61.2896°
orbit number at epoch: 74142

The dashed part of the orbit path shows where the satellite is in the earth's shadow,  

DLR